Weather History for Cambridge, MN

Change the Weather History Date:

Monday, May 23, 2011

  Actual Average Record
Temperature  
Mean Temperature 64 °F -  
Max Temperature 71 °F 71 °F 88 °F (1980)
Min Temperature 57 °F 48 °F 30 °F (1963)
Degree Days  
Heating Degree Days 1    
Growing Degree Days 14 (Base 50)    
Moisture  
Dew Point 57 °F    
Average Humidity 81    
Maximum Humidity 94    
Minimum Humidity 64    
Precipitation  
Precipitation 0.00 in - - ()
Sea Level Pressure  
Sea Level Pressure 29.54 in    
Wind  
Wind Speed 5 mph (WNW)    
Max Wind Speed 16 mph    
Max Gust Speed 22 mph    
Visibility 9 miles    
Events      
Averages and records for this station are not official NWS values.
T = Trace of Precipitation, MM = Missing Value Source: NWS Daily Summary

Daily Weather History Graph

Daily Weather History Graph

Search for Another Location

Airport:

Trip Planner

Search our weather history database for the weather conditions in past years. The results will help you decide how hot, cold, wet, or windy it might be!

Date:

Astronomy

May. 23, 2011 Rise Set
Actual Time 5:34 AM CDT 8:45 PM CDT
Civil Twilight 4:58 AM CDT 9:21 PM CDT
Nautical Twilight 4:12 AM CDT 10:08 PM CDT
Astronomical Twilight 3:15 AM CDT 11:05 PM CDT
Moon 1:07 AM CDT (5/23) 11:48 AM CDT (5/23)
Length of Visible Light 16h 23m
Length of Day
15h 11m
Waning Gibbous, 60% of the Moon is Illuminated
May 23
Waning Gibbous
May 24
Last Quarter
Jun 1
New
Jun 8
First Quarter
Jun 15
Full

Hourly Weather History & Observations

Time (CDT) Temp. Dew Point Humidity Pressure Visibility Wind Dir Wind Speed Gust Speed Precip Events Conditions
12:15 AM 57.2 °F 55.4 °F 94% 29.38 in 10.0 mi Calm Calm - N/A   Scattered Clouds
12:35 AM 57.2 °F 55.4 °F 94% 29.38 in 10.0 mi Calm Calm - N/A   Scattered Clouds
12:56 AM 57.2 °F 55.4 °F 94% 29.38 in 10.0 mi Calm Calm - N/A   Clear
1:16 AM 57.2 °F 53.6 °F 88% 29.38 in 10.0 mi Calm Calm - N/A   Scattered Clouds
1:35 AM 57.2 °F 55.4 °F 94% 29.39 in 10.0 mi Calm Calm - N/A   Scattered Clouds
1:56 AM 57.2 °F 53.6 °F 88% 29.39 in 10.0 mi Calm Calm - N/A   Scattered Clouds
2:16 AM 57.2 °F 53.6 °F 88% 29.39 in 10.0 mi Calm Calm - N/A   Mostly Cloudy
2:35 AM 57.2 °F 53.6 °F 88% 29.39 in 5.0 mi WNW 5.8 mph - N/A   Overcast
2:56 AM 57.2 °F 53.6 °F 88% 29.40 in 1.2 mi NNW 6.9 mph - N/A   Overcast
3:15 AM 57.2 °F 53.6 °F 88% 29.40 in 4.0 mi WNW 4.6 mph - N/A   Overcast
3:35 AM 57.2 °F 53.6 °F 88% 29.41 in 5.0 mi NW 4.6 mph - N/A   Overcast
3:56 AM 57.2 °F 53.6 °F 88% 29.42 in 7.0 mi NW 3.5 mph - N/A   Overcast
4:16 AM 57.2 °F 53.6 °F 88% 29.42 in 5.0 mi NW 6.9 mph - N/A   Overcast
4:35 AM 57.2 °F 53.6 °F 88% 29.43 in 7.0 mi WNW 5.8 mph - N/A   Overcast
4:56 AM 57.2 °F 53.6 °F 88% 29.44 in 5.0 mi WNW 4.6 mph - N/A   Overcast
5:16 AM 57.2 °F 53.6 °F 88% 29.44 in 2.5 mi WNW 4.6 mph - N/A   Overcast
5:35 AM 57.2 °F 53.6 °F 88% 29.45 in 7.0 mi WNW 5.8 mph - N/A   Overcast
5:56 AM 57.2 °F 53.6 °F 88% 29.46 in 7.0 mi WNW 5.8 mph - N/A   Overcast
6:15 AM 57.2 °F 53.6 °F 88% 29.47 in 7.0 mi WNW 5.8 mph - N/A   Overcast
6:35 AM 57.2 °F 53.6 °F 88% 29.48 in 10.0 mi WNW 3.5 mph - N/A   Overcast
6:56 AM 57.2 °F 53.6 °F 88% 29.49 in 10.0 mi West 3.5 mph - N/A   Overcast
7:16 AM 59.0 °F 55.4 °F 88% 29.50 in 10.0 mi WNW 5.8 mph - N/A   Overcast
7:35 AM 60.8 °F 55.4 °F 82% 29.51 in 10.0 mi West 8.1 mph - N/A   Mostly Cloudy
7:55 AM 60.8 °F 55.4 °F 82% 29.52 in 10.0 mi WNW 6.9 mph - N/A   Mostly Cloudy
8:15 AM 60.8 °F 55.4 °F 82% 29.52 in 10.0 mi West 5.8 mph - N/A   Mostly Cloudy
8:35 AM 60.8 °F 55.4 °F 82% 29.53 in 10.0 mi West 8.1 mph - N/A   Scattered Clouds
8:55 AM 60.8 °F 55.4 °F 82% 29.54 in 10.0 mi WNW 6.9 mph - N/A   Mostly Cloudy
9:15 AM 60.8 °F 55.4 °F 82% 29.55 in 10.0 mi West 9.2 mph - N/A   Overcast
9:35 AM 60.8 °F 55.4 °F 82% 29.56 in 10.0 mi West 9.2 mph - N/A   Overcast
9:55 AM 62.6 °F 57.2 °F 82% 29.56 in 10.0 mi West 6.9 mph - N/A   Overcast
10:15 AM 62.6 °F 57.2 °F 82% 29.57 in 10.0 mi WNW 8.1 mph - N/A   Overcast
10:36 AM 64.4 °F 57.2 °F 77% 29.57 in 10.0 mi West 10.4 mph - N/A   Mostly Cloudy
10:55 AM 64.4 °F 57.2 °F 77% 29.58 in 10.0 mi WNW 9.2 mph - N/A   Mostly Cloudy
11:15 AM 64.4 °F 57.2 °F 77% 29.59 in 10.0 mi NW 6.9 mph - N/A   Overcast
11:36 AM 64.4 °F 59.0 °F 83% 29.59 in 10.0 mi NW 10.4 mph - N/A   Mostly Cloudy
11:55 AM 64.4 °F 59.0 °F 83% 29.60 in 10.0 mi West 10.4 mph - N/A   Mostly Cloudy
12:15 PM 66.2 °F 59.0 °F 78% 29.60 in 10.0 mi WNW 13.8 mph 19.6 mph N/A   Mostly Cloudy
12:36 PM 66.2 °F 59.0 °F 78% 29.61 in 10.0 mi NNW 9.2 mph - N/A   Mostly Cloudy
12:55 PM 68.0 °F 60.8 °F 78% 29.61 in 10.0 mi NW 9.2 mph - N/A   Scattered Clouds
1:15 PM 69.8 °F 60.8 °F 73% 29.61 in 10.0 mi NW 9.2 mph - N/A   Scattered Clouds
1:36 PM 69.8 °F 60.8 °F 73% 29.62 in 10.0 mi WNW 16.1 mph 19.6 mph N/A   Mostly Cloudy
1:55 PM 69.8 °F 60.8 °F 73% 29.62 in 10.0 mi NNW 13.8 mph 21.9 mph N/A   Mostly Cloudy
2:15 PM 69.8 °F 60.8 °F 73% 29.62 in 10.0 mi NW 13.8 mph 20.7 mph N/A   Scattered Clouds
2:36 PM 71.6 °F 60.8 °F 69% 29.63 in 10.0 mi NW 13.8 mph 20.7 mph N/A   Scattered Clouds
2:55 PM 69.8 °F 60.8 °F 73% 29.63 in 10.0 mi WNW 12.7 mph 19.6 mph N/A   Clear
3:15 PM 69.8 °F 60.8 °F 73% 29.64 in 10.0 mi NW 13.8 mph 19.6 mph N/A   Scattered Clouds
3:36 PM 69.8 °F 60.8 °F 73% 29.65 in 10.0 mi NW 10.4 mph 17.3 mph N/A   Scattered Clouds
3:55 PM 69.8 °F 60.8 °F 73% 29.65 in 10.0 mi NNW 6.9 mph - N/A   Scattered Clouds
4:15 PM 69.8 °F 60.8 °F 73% 29.65 in 10.0 mi NW 5.8 mph - N/A   Scattered Clouds
4:36 PM 71.6 °F 60.8 °F 69% 29.66 in 10.0 mi NW 8.1 mph - N/A   Scattered Clouds
4:55 PM 69.8 °F 60.8 °F 73% 29.66 in 10.0 mi NW 8.1 mph - N/A   Mostly Cloudy
5:15 PM 71.6 °F 60.8 °F 69% 29.66 in 10.0 mi NW 10.4 mph - N/A   Scattered Clouds
5:35 PM 71.6 °F 60.8 °F 69% 29.66 in 10.0 mi WNW 8.1 mph - N/A   Mostly Cloudy
5:55 PM 71.6 °F 60.8 °F 69% 29.66 in 10.0 mi NNW 8.1 mph - N/A   Scattered Clouds
6:15 PM 71.6 °F 59.0 °F 64% 29.66 in 10.0 mi WNW 8.1 mph - N/A   Clear
6:36 PM 71.6 °F 60.8 °F 69% 29.67 in 10.0 mi WNW 9.2 mph - N/A   Scattered Clouds
6:55 PM 69.8 °F 59.0 °F 68% 29.67 in 10.0 mi NW 8.1 mph - N/A   Scattered Clouds
7:15 PM 69.8 °F 57.2 °F 64% 29.68 in 10.0 mi NNW 10.4 mph - N/A   Mostly Cloudy
7:36 PM 68.0 °F 57.2 °F 68% 29.69 in 10.0 mi NNW 6.9 mph - N/A   Overcast
7:55 PM 68.0 °F 57.2 °F 68% 29.70 in 10.0 mi NNW 4.6 mph - N/A   Overcast
8:15 PM 66.2 °F 57.2 °F 73% 29.70 in 10.0 mi NNW 8.1 mph - N/A   Overcast
8:36 PM 66.2 °F 57.2 °F 73% 29.71 in 10.0 mi NNW 5.8 mph - N/A   Overcast
8:55 PM 66.2 °F 55.4 °F 68% 29.72 in 10.0 mi NNW 4.6 mph - N/A   Overcast
9:15 PM 64.4 °F 55.4 °F 73% 29.73 in 10.0 mi North 4.6 mph - N/A   Mostly Cloudy
9:35 PM 64.4 °F 55.4 °F 73% 29.74 in 10.0 mi NNW 4.6 mph - N/A   Mostly Cloudy
9:55 PM 64.4 °F 55.4 °F 73% 29.75 in 10.0 mi NNW 5.8 mph - N/A   Mostly Cloudy
10:15 PM 62.6 °F 55.4 °F 77% 29.75 in 10.0 mi North 4.6 mph - N/A   Scattered Clouds
10:36 PM 62.6 °F 55.4 °F 77% 29.76 in 10.0 mi NNW 5.8 mph - N/A   Clear
10:55 PM 62.6 °F 55.4 °F 77% 29.77 in 10.0 mi North 5.8 mph - N/A   Clear
11:15 PM 60.8 °F 53.6 °F 77% 29.78 in 10.0 mi North 5.8 mph - N/A   Clear
11:36 PM 60.8 °F 53.6 °F 77% 29.78 in 10.0 mi North 4.6 mph - N/A   Clear
11:55 PM 60.8 °F 53.6 °F 77% 29.79 in 10.0 mi North 3.5 mph - N/A   Clear